Regional Weather Roundup
Issued by NWS

Home | Current Version | Previous Version | Graphics & Text | Print | Product List | Glossary On
Versions: 1 2 3 4 5 6 7 8 9 10 11 12 13 14 15 16 17 18 19 20 21 22 23 24 25 26 27
000
ASUS45 KBOI 230410
RWRID

IDAHO REGIONAL WEATHER ROUNDUP
NATIONAL WEATHER SERVICE BOISE ID
1000 PM MDT SAT APR 22 2017

NOTE: "FAIR" INDICATES FEW OR NO CLOUDS BELOW 12000 FEET
WITH NO SIGNIFICANT WEATHER AND/OR OBSTRUCTIONS TO VISIBILITY

IDZ012-014-230500-
SOUTHWEST IDAHO


CITY           SKY/WX    TMP DP  RH WIND       PRES   REMARKS
BOISE          CLOUDY    63  32  31 SE13      29.82F
CALDWELL       CLOUDY    60  38  43 S8        29.82R
MOUNTAIN HOME  MOCLDY    58  31  36 E14       29.84F
$$

IDZ016-017-230500-
SOUTHCENTRAL IDAHO


CITY           SKY/WX    TMP DP  RH WIND       PRES   REMARKS
BURLEY         CLOUDY    54  26  34 S8        29.95S
JEROME         CLOUDY    52  31  44 E9        29.93S
TWIN FALLS     CLOUDY    55  31  39 S18       29.91R
$$

IDZ019>023-230500-
SOUTHEAST IDAHO


CITY           SKY/WX    TMP DP  RH WIND       PRES   REMARKS
IDAHO FALLS    CLOUDY    51  29  42 S7        30.04R
POCATELLO      CLOUDY    52  28  39 S14       30.01F
REXBURG        CLOUDY    51  29  42 S3        30.03R
$$

IDZ006-010-011-018-031-032-230500-
CENTRAL IDAHO MOUNTAINS


CITY           SKY/WX    TMP DP  RH WIND       PRES   REMARKS
MCCALL         CLOUDY    46  32  58 CALM      29.89F
HAILEY         MOCLDY    48  30  49 NW6       30.02R
STANLEY          N/A     43  24  47 S10       30.00F
SALMON         CLOUDY    54  27  35 S3        29.91R
CHALLIS        PTCLDY    50  24  36 S6        29.97R
$$

IDZ002-004-006-007-026-230500-
NORTHERN IDAHO


CITY           SKY/WX    TMP DP  RH WIND       PRES   REMARKS
LEWISTON       LGT RAIN  57  42  57 N3        29.92R
LOWELL           N/A     61  40  45 SE8       29.91R
COEUR D`ALENE  CLOUDY    52  39  61 SE6       29.92S
MULLAN PASS    LGT RAIN  37  34  89 NW9G23    29.94S WCI  30
$$




USA.gov is the U.S. government's official web portal to all federal, state and local government web resources and services.